Time,TemperatureF,DewpointF,PressureIn,WindDirection,WindDirectionDegrees,WindSpeedMPH,WindSpeedGustMPH,Humidity,HourlyPrecipIn,Conditions,Clouds,dailyrainin,SoftwareType,DateUTC
2013-06-01 00:03:00,73.0,62.0,29.93,SW,218,0.0,0.0,68,0.00,,,0.00,,2013-06-01 04:03:00,
2013-06-01 00:12:00,73.0,63.0,29.93,WSW,258,0.0,2.0,71,0.00,,,0.00,,2013-06-01 04:12:00,
2013-06-01 00:23:00,73.0,63.0,29.93,WSW,258,0.0,2.0,71,0.00,,,0.00,,2013-06-01 04:23:00,
2013-06-01 00:33:00,73.0,64.0,29.93,West,260,0.0,4.0,73,0.00,,,0.00,,2013-06-01 04:33:00,
2013-06-01 00:42:00,73.0,64.0,29.93,WSW,252,0.0,2.0,74,0.00,,,0.00,,2013-06-01 04:42:00,
2013-06-01 00:53:00,73.0,64.0,29.93,WSW,252,0.0,2.0,74,0.00,,,0.00,,2013-06-01 04:53:00,
2013-06-01 01:02:00,73.0,64.0,29.93,WSW,252,0.0,2.0,74,0.00,,,0.00,,2013-06-01 05:02:00,
2013-06-01 01:12:00,73.0,64.0,29.93,WSW,252,0.0,2.0,74,0.00,,,0.00,,2013-06-01 05:12:00,
2013-06-01 01:22:00,72.0,64.0,29.93,WSW,252,0.0,2.0,75,0.00,,,0.00,,2013-06-01 05:22:00,
2013-06-01 01:32:00,72.0,64.0,29.92,NW,326,0.0,3.0,76,0.00,,,0.00,,2013-06-01 05:32:00,
2013-06-01 01:42:00,72.0,65.0,29.92,NW,306,0.0,4.0,78,0.00,,,0.00,,2013-06-01 05:42:00,
2013-06-01 01:52:00,72.0,65.0,29.92,NW,306,0.0,4.0,78,0.00,,,0.00,,2013-06-01 05:52:00,
2013-06-01 02:01:00,72.0,65.0,29.92,West,259,0.0,3.0,79,0.00,,,0.00,,2013-06-01 06:01:00,
2013-06-01 02:12:00,71.0,65.0,29.92,West,259,0.0,5.0,80,0.00,,,0.00,,2013-06-01 06:12:00,
2013-06-01 02:22:00,71.0,65.0,29.92,West,259,0.0,5.0,80,0.00,,,0.00,,2013-06-01 06:22:00,
2013-06-01 02:32:00,71.0,65.0,29.92,WNW,288,0.0,2.0,80,0.00,,,0.00,,2013-06-01 06:32:00,
2013-06-01 02:42:00,71.0,65.0,29.91,WNW,283,0.0,3.0,81,0.00,,,0.00,,2013-06-01 06:42:00,
2013-06-01 02:52:00,71.0,65.0,29.91,WNW,283,0.0,3.0,81,0.00,,,0.00,,2013-06-01 06:52:00,
2013-06-01 03:01:00,71.0,65.0,29.91,WNW,283,0.0,3.0,82,0.00,,,0.00,,2013-06-01 07:01:00,
2013-06-01 03:11:00,71.0,65.0,29.91,WNW,283,0.0,3.0,82,0.00,,,0.00,,2013-06-01 07:11:00,
2013-06-01 03:22:00,71.0,66.0,29.91,West,271,0.0,3.0,83,0.00,,,0.00,,2013-06-01 07:22:00,
2013-06-01 03:32:00,71.0,66.0,29.91,West,281,0.0,4.0,84,0.00,,,0.00,,2013-06-01 07:32:00,
2013-06-01 03:42:00,70.0,65.0,29.90,West,281,0.0,2.0,85,0.00,,,0.00,,2013-06-01 07:42:00,
2013-06-01 03:52:00,70.0,65.0,29.90,West,281,0.0,2.0,85,0.00,,,0.00,,2013-06-01 07:52:00,
2013-06-01 04:02:00,70.0,65.0,29.90,West,281,0.0,1.0,85,0.00,,,0.00,,2013-06-01 08:02:00,
2013-06-01 04:11:00,70.0,66.0,29.90,West,281,0.0,2.0,86,0.00,,,0.00,,2013-06-01 08:11:00,
2013-06-01 04:22:00,70.0,66.0,29.90,West,281,0.0,2.0,86,0.00,,,0.00,,2013-06-01 08:22:00,
2013-06-01 04:32:00,69.0,65.0,29.90,West,281,0.0,2.0,87,0.00,,,0.00,,2013-06-01 08:32:00,
2013-06-01 04:42:00,69.0,65.0,29.90,West,281,0.0,2.0,88,0.00,,,0.00,,2013-06-01 08:42:00,
2013-06-01 04:52:00,69.0,65.0,29.90,West,281,0.0,2.0,88,0.00,,,0.00,,2013-06-01 08:52:00,
2013-06-01 05:02:00,69.0,65.0,29.90,WNW,282,0.0,3.0,88,0.00,,,0.00,,2013-06-01 09:02:00,
2013-06-01 05:12:00,69.0,65.0,29.90,WNW,282,0.0,3.0,88,0.00,,,0.00,,2013-06-01 09:12:00,
2013-06-01 05:21:00,69.0,65.0,29.90,WNW,284,0.0,3.0,88,0.00,,,0.00,,2013-06-01 09:21:00,
2013-06-01 05:33:00,69.0,66.0,29.90,WNW,284,0.0,2.0,89,0.00,,,0.00,,2013-06-01 09:33:00,
2013-06-01 05:42:00,69.0,66.0,29.90,WNW,284,0.0,2.0,89,0.00,,,0.00,,2013-06-01 09:42:00,
2013-06-01 05:53:00,68.0,65.0,29.90,West,260,0.0,3.0,89,0.00,,,0.00,,2013-06-01 09:53:00,
2013-06-01 06:02:00,68.0,65.0,29.90,West,261,0.0,4.0,89,0.00,,,0.00,,2013-06-01 10:02:00,
2013-06-01 06:13:00,68.0,65.0,29.90,West,261,0.0,4.0,89,0.00,,,0.00,,2013-06-01 10:13:00,
2013-06-01 06:22:00,68.0,65.0,29.91,West,261,0.0,3.0,90,0.00,,,0.00,,2013-06-01 10:22:00,
2013-06-01 06:33:00,68.0,65.0,29.91,WSW,257,0.0,4.0,90,0.00,,,0.00,,2013-06-01 10:33:00,
2013-06-01 06:42:00,69.0,66.0,29.91,WSW,238,0.0,5.0,90,0.00,,,0.00,,2013-06-01 10:42:00,
2013-06-01 06:52:00,69.0,66.0,29.91,WSW,238,0.0,5.0,90,0.00,,,0.00,,2013-06-01 10:52:00,
2013-06-01 07:03:00,69.0,66.0,29.90,NW,304,1.0,5.0,90,0.00,,,0.00,,2013-06-01 11:03:00,
2013-06-01 07:11:00,69.0,66.0,29.90,NW,304,1.0,5.0,90,0.00,,,0.00,,2013-06-01 11:11:00,
2013-06-01 07:21:00,69.0,66.0,29.91,WSW,253,0.0,4.0,89,0.00,,,0.00,,2013-06-01 11:21:00,
2013-06-01 07:33:00,69.0,66.0,29.91,WNW,301,0.0,5.0,89,0.00,,,0.00,,2013-06-01 11:33:00,
2013-06-01 07:42:00,70.0,67.0,29.91,WSW,244,0.0,7.0,89,0.00,,,0.00,,2013-06-01 11:42:00,
2013-06-01 07:52:00,70.0,67.0,29.91,WSW,244,0.0,7.0,89,0.00,,,0.00,,2013-06-01 11:52:00,
2013-06-01 08:01:00,71.0,67.0,29.92,WSW,238,1.0,5.0,88,0.00,,,0.00,,2013-06-01 12:01:00,
2013-06-01 08:12:00,71.0,67.0,29.92,WSW,238,1.0,5.0,88,0.00,,,0.00,,2013-06-01 12:12:00,
2013-06-01 08:22:00,71.0,67.0,29.92,West,270,0.0,5.0,86,0.00,,,0.00,,2013-06-01 12:22:00,
2013-06-01 08:32:00,73.0,68.0,29.92,NW,319,0.0,7.0,84,0.00,,,0.00,,2013-06-01 12:32:00,
2013-06-01 08:42:00,74.0,68.0,29.92,WNW,292,1.0,5.0,81,0.00,,,0.00,,2013-06-01 12:42:00,
2013-06-01 08:52:00,74.0,68.0,29.92,WNW,292,1.0,5.0,81,0.00,,,0.00,,2013-06-01 12:52:00,
2013-06-01 09:01:00,75.0,68.0,29.91,SW,229,0.0,4.0,79,0.00,,,0.00,,2013-06-01 13:01:00,
2013-06-01 09:11:00,75.0,68.0,29.91,SW,229,0.0,4.0,79,0.00,,,0.00,,2013-06-01 13:11:00,
2013-06-01 09:22:00,76.0,68.0,29.91,West,275,1.0,5.0,77,0.00,,,0.00,,2013-06-01 13:22:00,
2013-06-01 09:32:00,76.0,67.0,29.91,West,277,1.0,5.0,75,0.00,,,0.00,,2013-06-01 13:32:00,
2013-06-01 09:42:00,77.0,68.0,29.91,West,268,1.0,7.0,73,0.00,,,0.00,,2013-06-01 13:42:00,
2013-06-01 09:52:00,77.0,68.0,29.91,West,268,1.0,7.0,73,0.00,,,0.00,,2013-06-01 13:52:00,
2013-06-01 10:02:00,78.0,69.0,29.91,WNW,300,0.0,4.0,75,0.00,,,0.00,,2013-06-01 14:02:00,
2013-06-01 10:11:00,78.0,69.0,29.91,WNW,300,0.0,4.0,75,0.00,,,0.00,,2013-06-01 14:11:00,
2013-06-01 10:21:00,79.0,70.0,29.90,WNW,299,1.0,4.0,73,0.00,,,0.00,,2013-06-01 14:21:00,
2013-06-01 10:32:00,79.0,69.0,29.90,WSW,255,0.0,5.0,71,0.00,,,0.00,,2013-06-01 14:32:00,
2013-06-01 10:42:00,79.0,69.0,29.90,WSW,255,0.0,5.0,71,0.00,,,0.00,,2013-06-01 14:42:00,
2013-06-01 10:52:00,80.0,71.0,29.89,West,278,0.0,3.0,74,0.00,,,0.00,,2013-06-01 14:52:00,
2013-06-01 11:02:00,80.0,68.0,29.89,WNW,284,0.0,4.0,68,0.00,,,0.00,,2013-06-01 15:02:00,
2013-06-01 11:11:00,80.0,68.0,29.89,WNW,284,0.0,4.0,68,0.00,,,0.00,,2013-06-01 15:11:00,
2013-06-01 11:21:00,82.0,70.0,29.89,WSW,248,1.0,4.0,67,0.00,,,0.00,,2013-06-01 15:21:00,
2013-06-01 11:33:00,82.0,71.0,29.89,West,265,0.0,3.0,69,0.00,,,0.00,,2013-06-01 15:33:00,
2013-06-01 11:43:00,82.0,71.0,29.89,West,265,0.0,3.0,69,0.00,,,0.00,,2013-06-01 15:43:00,
2013-06-01 11:53:00,83.0,70.0,29.89,SSW,198,1.0,6.0,66,0.00,,,0.00,,2013-06-01 15:53:00,
2013-06-01 12:03:00,83.0,71.0,29.89,WSW,252,1.0,6.0,67,0.00,,,0.00,,2013-06-01 16:03:00,
2013-06-01 12:12:00,83.0,71.0,29.89,WSW,252,1.0,6.0,67,0.00,,,0.00,,2013-06-01 16:12:00,
2013-06-01 12:23:00,83.0,70.0,29.88,West,272,0.0,5.0,66,0.00,,,0.00,,2013-06-01 16:23:00,
2013-06-01 12:33:00,84.0,70.0,29.88,South,182,0.0,9.0,63,0.00,,,0.00,,2013-06-01 16:33:00,
2013-06-01 12:42:00,84.0,70.0,29.88,South,173,1.0,8.0,63,0.00,,,0.00,,2013-06-01 16:42:00,
2013-06-01 12:52:00,84.0,70.0,29.88,South,173,1.0,8.0,63,0.00,,,0.00,,2013-06-01 16:52:00,
2013-06-01 13:02:00,85.0,71.0,29.88,SSW,194,2.0,7.0,64,0.00,,,0.00,,2013-06-01 17:02:00,
2013-06-01 13:12:00,85.0,71.0,29.88,SSW,194,2.0,7.0,64,0.00,,,0.00,,2013-06-01 17:12:00,
2013-06-01 13:22:00,85.0,71.0,29.88,SW,234,2.0,6.0,63,0.00,,,0.00,,2013-06-01 17:22:00,
2013-06-01 13:32:00,84.0,72.0,29.87,WNW,286,0.0,6.0,68,0.00,,,0.00,,2013-06-01 17:32:00,
2013-06-01 13:42:00,84.0,72.0,29.87,WNW,286,0.0,6.0,68,0.00,,,0.00,,2013-06-01 17:42:00,
2013-06-01 13:52:00,84.0,70.0,29.87,NW,314,3.0,7.0,64,0.00,,,0.00,,2013-06-01 17:52:00,
2013-06-01 14:01:00,85.0,71.0,29.86,WNW,300,3.0,9.0,64,0.00,,,0.00,,2013-06-01 18:01:00,
2013-06-01 14:12:00,85.0,71.0,29.86,WNW,300,3.0,9.0,64,0.00,,,0.00,,2013-06-01 18:12:00,
2013-06-01 14:22:00,85.0,71.0,29.86,SW,221,1.0,8.0,64,0.00,,,0.00,,2013-06-01 18:22:00,
2013-06-01 14:32:00,85.0,70.0,29.85,SW,236,1.0,6.0,62,0.00,,,0.00,,2013-06-01 18:32:00,
2013-06-01 14:42:00,85.0,70.0,29.85,SW,236,1.0,6.0,62,0.00,,,0.00,,2013-06-01 18:42:00,
2013-06-01 14:52:00,86.0,70.0,29.84,South,178,3.0,13.0,60,0.00,,,0.00,,2013-06-01 18:52:00,
2013-06-01 15:02:00,85.0,71.0,29.85,WNW,296,1.0,5.0,63,0.00,,,0.00,,2013-06-01 19:02:00,
2013-06-01 15:11:00,86.0,71.0,29.84,South,189,0.0,8.0,62,0.00,,,0.00,,2013-06-01 19:11:00,
2013-06-01 15:21:00,86.0,71.0,29.84,South,189,0.0,8.0,62,0.00,,,0.00,,2013-06-01 19:21:00,
2013-06-01 15:32:00,87.0,70.0,29.84,South,178,1.0,6.0,58,0.00,,,0.00,,2013-06-01 19:32:00,
2013-06-01 15:42:00,87.0,70.0,29.84,South,178,1.0,6.0,58,0.00,,,0.00,,2013-06-01 19:42:00,
2013-06-01 15:52:00,87.0,70.0,29.84,SSW,199,1.0,7.0,58,0.00,,,0.00,,2013-06-01 19:52:00,
2013-06-01 16:02:00,85.0,70.0,29.84,West,269,0.0,11.0,61,0.00,,,0.00,,2013-06-01 20:02:00,
2013-06-01 16:12:00,85.0,70.0,29.84,West,269,0.0,11.0,61,0.00,,,0.00,,2013-06-01 20:12:00,
2013-06-01 16:21:00,87.0,71.0,29.84,West,267,1.0,10.0,60,0.00,,,0.00,,2013-06-01 20:21:00,
2013-06-01 16:32:00,88.0,71.0,29.83,NNW,336,2.0,9.0,57,0.00,,,0.00,,2013-06-01 20:32:00,
2013-06-01 16:42:00,85.0,70.0,29.83,WNW,292,1.0,8.0,60,0.00,,,0.00,,2013-06-01 20:42:00,
2013-06-01 16:52:00,85.0,70.0,29.83,WNW,292,1.0,8.0,60,0.00,,,0.00,,2013-06-01 20:52:00,
2013-06-01 17:01:00,84.0,70.0,29.83,WNW,298,0.0,6.0,63,0.00,,,0.00,,2013-06-01 21:01:00,
2013-06-01 17:11:00,85.0,70.0,29.83,West,263,0.0,7.0,62,0.00,,,0.00,,2013-06-01 21:11:00,
2013-06-01 17:21:00,85.0,70.0,29.83,West,263,0.0,7.0,62,0.00,,,0.00,,2013-06-01 21:21:00,
2013-06-01 17:33:00,84.0,69.0,29.83,SW,225,1.0,10.0,61,0.00,,,0.00,,2013-06-01 21:33:00,
2013-06-01 17:43:00,84.0,69.0,29.83,SW,225,1.0,10.0,61,0.00,,,0.00,,2013-06-01 21:43:00,
2013-06-01 17:53:00,84.0,70.0,29.82,NW,315,0.0,6.0,63,0.00,,,0.00,,2013-06-01 21:53:00,
2013-06-01 18:03:00,84.0,70.0,29.82,SSW,201,0.0,4.0,63,0.00,,,0.00,,2013-06-01 22:03:00,
2013-06-01 18:12:00,83.0,69.0,29.81,SSE,150,0.0,3.0,63,0.00,,,0.00,,2013-06-01 22:12:00,
2013-06-01 18:23:00,83.0,69.0,29.81,SSE,150,0.0,3.0,63,0.00,,,0.00,,2013-06-01 22:23:00,
2013-06-01 18:33:00,83.0,69.0,29.81,SSW,209,1.0,7.0,63,0.00,,,0.00,,2013-06-01 22:33:00,
2013-06-01 18:42:00,85.0,70.0,29.81,WSW,256,0.0,4.0,61,0.00,,,0.00,,2013-06-01 22:42:00,
2013-06-01 18:53:00,85.0,70.0,29.81,WSW,256,0.0,4.0,61,0.00,,,0.00,,2013-06-01 22:53:00,
2013-06-01 19:02:00,85.0,70.0,29.81,South,185,1.0,3.0,60,0.00,,,0.00,,2013-06-01 23:02:00,
2013-06-01 19:12:00,85.0,69.0,29.81,SSW,204,2.0,9.0,58,0.00,,,0.00,,2013-06-01 23:12:00,
2013-06-01 19:22:00,85.0,69.0,29.81,SSW,204,2.0,9.0,58,0.00,,,0.00,,2013-06-01 23:22:00,
2013-06-01 19:32:00,83.0,68.0,29.81,SE,143,0.0,6.0,60,0.00,,,0.00,,2013-06-01 23:32:00,
2013-06-01 19:42:00,83.0,68.0,29.81,SE,143,0.0,6.0,60,0.00,,,0.00,,2013-06-01 23:42:00,
2013-06-01 19:52:00,83.0,68.0,29.81,NW,320,0.0,3.0,60,0.00,,,0.00,,2013-06-01 23:52:00,
2013-06-01 20:02:00,82.0,68.0,29.81,SSE,162,0.0,5.0,62,0.00,,,0.00,,2013-06-02 00:02:00,
2013-06-01 20:11:00,82.0,68.0,29.81,SSE,162,0.0,5.0,62,0.00,,,0.00,,2013-06-02 00:11:00,
2013-06-01 20:22:00,81.0,66.0,29.81,West,277,0.0,3.0,61,0.00,,,0.00,,2013-06-02 00:22:00,
2013-06-01 20:32:00,81.0,67.0,29.81,South,180,0.0,4.0,63,0.00,,,0.00,,2013-06-02 00:32:00,
2013-06-01 20:42:00,81.0,67.0,29.81,South,180,0.0,4.0,63,0.00,,,0.00,,2013-06-02 00:42:00,
2013-06-01 20:51:00,80.0,67.0,29.82,WSW,249,0.0,3.0,64,0.00,,,0.00,,2013-06-02 00:51:00,
2013-06-01 21:01:00,79.0,66.0,29.82,South,175,0.0,2.0,65,0.00,,,0.00,,2013-06-02 01:01:00,
2013-06-01 21:11:00,79.0,66.0,29.82,South,175,0.0,2.0,65,0.00,,,0.00,,2013-06-02 01:11:00,
2013-06-01 21:21:00,79.0,67.0,29.82,NW,304,0.0,4.0,67,0.00,,,0.00,,2013-06-02 01:21:00,
2013-06-01 21:32:00,79.0,67.0,29.82,WSW,244,0.0,3.0,66,0.00,,,0.00,,2013-06-02 01:32:00,
2013-06-01 21:42:00,78.0,67.0,29.83,SW,230,0.0,3.0,68,0.00,,,0.00,,2013-06-02 01:42:00,
2013-06-01 21:52:00,78.0,67.0,29.83,SW,230,0.0,3.0,68,0.00,,,0.00,,2013-06-02 01:52:00,
2013-06-01 22:02:00,78.0,67.0,29.83,SW,230,0.0,1.0,69,0.00,,,0.00,,2013-06-02 02:02:00,
2013-06-01 22:12:00,78.0,67.0,29.83,SW,230,0.0,1.0,69,0.00,,,0.00,,2013-06-02 02:12:00,
2013-06-01 22:21:00,78.0,67.0,29.83,WSW,238,0.0,6.0,70,0.00,,,0.00,,2013-06-02 02:21:00,
2013-06-01 22:32:00,77.0,67.0,29.83,South,186,0.0,3.0,71,0.00,,,0.00,,2013-06-02 02:32:00,
2013-06-01 22:42:00,77.0,67.0,29.83,South,186,0.0,3.0,71,0.00,,,0.00,,2013-06-02 02:42:00,
2013-06-01 22:52:00,77.0,67.0,29.83,West,275,0.0,3.0,71,0.00,,,0.00,,2013-06-02 02:52:00,
2013-06-01 23:02:00,76.0,66.0,29.83,West,275,0.0,1.0,72,0.00,,,0.00,,2013-06-02 03:02:00,
2013-06-01 23:11:00,76.0,66.0,29.83,West,275,0.0,1.0,72,0.00,,,0.00,,2013-06-02 03:11:00,
2013-06-01 23:21:00,76.0,67.0,29.82,West,278,0.0,0.0,73,0.00,,,0.00,,2013-06-02 03:21:00,
2013-06-01 23:33:00,76.0,67.0,29.82,West,277,0.0,1.0,73,0.00,,,0.00,,2013-06-02 03:33:00,
2013-06-01 23:43:00,76.0,67.0,29.82,West,277,0.0,1.0,73,0.00,,,0.00,,2013-06-02 03:43:00,
2013-06-01 23:53:00,75.0,66.0,29.82,SSE,162,0.0,0.0,74,0.00,,,0.00,,2013-06-02 03:53:00,